Home > Weather > Santa María > Past weeks

Flag for Brazil Weather for the Past 2 Weeks in Santa María, Rio Grande do Sul, Brazil

Now
81 °F

Sunny.


Feels Like: 85 °F
Forecast: 74 / 91 °F
Wind: 3 mph from Northeast

Location: Porto Alegre Aero-Porto

Current Time: Feb 8, 2016 at 9:34:20 AM

Latest Report: Feb 8, 2016 at 9:00 AM


Visibility: 10 mi

Pressure: 29.92 "Hg

Humidity: 74%

Dew point: 72 °F

Location of Santa MaríaLocation

Historic Weather in Santa María — Graph

°F

Santa María Temperature Yesterday

Maximum temperature yesterday: 88 °F (at 3:00 PM)
Minimum temperature yesterday: 72 °F (at 6:00 AM)
Average temperature yesterday: 79 °F

High & Low Weather Summary for the Past Weeks

 TemperatureHumidityPressure
High100 °F (Jan 25, 3:00 PM)100% (Jan 27, 5:00 AM)30.09 "Hg (Jan 27, 5:00 AM)
Low39 °F (Jan 31, 3:00 PM)23% (Jan 24, 3:00 PM)29.62 "Hg (Jan 25, 5:00 PM)
Average77 °F76%29.91 "Hg
* Reported Jan 24 8:00 AM — Feb 8 8:00 AM, Santa María, Weather by CustomWeather, © 2016

Note: Actual official high and low records may vary slightly from our data, if they occured in-between our weather recording intervals... More about our weather records

Advertising

Santa María Weather History for the Previous 24 Hours

 ConditionsComfort  
Time TempWeatherWind HumidityBarometerVisibility
8:00 AM
Mon, Feb 8
77 °FSunny.2 mph83%29.89 "Hg10 mi
7:00 AM75 °FSunny.2 mph89%29.89 "Hg10 mi
6:00 AM75 °FClear.2 mph83%29.86 "Hg10 mi
5:00 AM75 °FClear.3 mph89%29.83 "Hg10 mi
4:00 AM75 °FClear.7 mph83%29.83 "Hg10 mi
3:00 AM75 °FClear.6 mph89%29.86 "Hg10 mi
2:00 AM77 °FClear.7 mph83%29.89 "Hg10 mi
1:00 AM77 °FClear.9 mph83%29.89 "Hg10 mi
12:00 AM77 °FClear.10 mph83%29.92 "Hg10 mi
11:00 PM
Sun, Feb 7
77 °FClear.10 mph83%29.92 "Hg10 mi
10:00 PM77 °FClear.12 mph83%29.89 "Hg10 mi
9:00 PM79 °FClear.15 mph79%29.89 "Hg10 mi
8:00 PM81 °FSunny.17 mph74%29.86 "Hg10 mi
7:00 PM84 °FSunny.15 mph70%29.86 "Hg10 mi
6:00 PM86 °FPassing clouds.16 mph66%29.86 "HgN/A
5:00 PM86 °FScattered clouds.15 mph66%29.89 "HgN/A
4:00 PM88 °FScattered clouds.12 mph62%29.89 "HgN/A
3:00 PM88 °FPassing clouds.6 mph59%29.92 "HgN/A
2:00 PM86 °FPassing clouds.9 mph62%29.95 "HgN/A
1:00 PM84 °FPassing clouds.10 mph62%29.98 "HgN/A
12:00 PM82 °FSunny.10 mph66%30.01 "Hg10 mi
11:00 AM81 °FScattered clouds.13 mph70%30.01 "HgN/A
10:00 AM77 °FPassing clouds.15 mph79%30.01 "HgN/A
9:00 AM75 °FPassing clouds.15 mph83%30.01 "HgN/A
Weather by CustomWeather, © 2016

See weather overviewHow to use our weather pages